Wind_Speed
93 87 83 84 86 89 91 90 90 87 86 88 89 85 88 87 84 82 82 77 79 78 75 70 68 68 65 66 69 67 68 69 70 68 66 66 70 69 67 70 69 63 66 63 64 69 70
97 93 92 93 92 93 93 99 97 102 98 99 93 95 93 90 89 87 89 87 82 83 82 77 74 74 73 73 69 68 70 73 74 76 76 71 72 75 70 72 73 72 69 69 68 69 75
101 103 101 99 103 100 102 104 103 103 105 107 103 96 97 95 94 92 94 89 90 88 88 88 84 81 80 89 78 76 74 73 76 78 77 76 76 76 75 77 76 75 73 71 69 72 76
111 103 104 99 95 99 96 99 100 104 108 106 104 106 104 104 99 98 97 99 95 92 92 92 91 89 86 92 85 86 81 84 76 76 76 76 78 80 75 76 74 70 72 71 69 72 75
105 106 97 87 87 82 82 86 90 92 97 100 103 108 110 112 110 108 106 104 105 99 98 96 98 100 97 98 93 90 93 90 86 80 78 84 80 79 75 75 74 74 70 71 68 76 79
108 95 86 83 82 83 82 81 82 83 84 87 88 91 95 105 114 114 112 111 108 104 102 104 103 96 97 98 94 93 93 92 92 89 86 86 86 85 81 81 79 81 79 76 74 78 80
95 87 85 86 86 84 85 88 87 87 85 83 87 84 85 87 91 92 101 109 111 101 98 102 100 98 97 97 94 95 97 97 95 91 88 86 88 90 88 87 84 83 81 78 73 77 83
88 86 87 88 89 89 89 88 88 88 91 90 90 89 88 85 85 86 90 96 98 102 101 100 94 94 96 97 94 99 93 93 92 94 85 86 88 87 88 88 87 82 84 78 80 84 80
89 89 89 87 85 84 84 83 82 81 83 85 88 89 93 96 93 87 84 86 89 95 95 104 103 101 98 94 99 102 96 95 92 89 87 82 81 79 82 85 86 87 89 85 87 82 81
88 86 86 85 82 80 81 81 80 79 77 77 79 81 85 92 95 95 92 88 83 86 88 93 96 97 99 95 96 98 93 89 86 83 81 82 80 76 79 80 84 84 84 86 88 78 65
85 84 83 81 77 74 75 75 74 73 73 73 73 78 81 81 83 91 93 94 92 90 86 84 89 93 93 97 95 96 95 92 87 83 78 77 77 78 78 81 82 79 83 83 80 72 56
82 79 79 75 71 68 68 68 68 66 67 68 69 72 76 76 80 81 83 93 92 91 87 84 82 86 88 89 90 92 92 84 82 78 78 77 76 77 78 78 79 79 80 79 67 54 45
77 76 75 70 68 66 64 63 62 62 61 61 62 66 71 71 76 74 78 81 87 89 93 90 84 82 82 81 79 77 79 78 80 79 79 78 77 75 74 76 76 74 77 67 56 40 37
75 74 73 67 66 63 60 58 56 55 55 56 58 59 64 70 67 71 74 76 77 84 96 93 86 81 81 79 77 75 76 75 75 73 72 76 75 76 77 75 73 72 67 56 47 37 35
74 70 69 66 63 58 55 52 50 49 49 50 51 54 60 61 63 66 69 67 74 82 88 86 86 88 87 83 81 77 75 73 71 71 73 75 77 76 72 67 64 64 65 47 41 38 39
70 68 67 64 59 52 48 46 46 45 44 45 46 51 51 54 58 62 62 65 76 75 78 73 79 87 90 90 84 79 74 74 73 72 73 74 73 71 66 62 60 55 49 42 38 41 46
67 67 65 61 54 49 45 43 41 40 41 42 41 49 42 48 53 54 55 65 71 71 69 70 75 79 81 83 82 78 77 75 72 70 72 72 71 69 60 54 52 44 43 39 43 45 51
66 66 61 57 49 48 43 40 38 36 37 36 38 41 38 41 45 49 57 64 67 67 67 70 72 75 73 79 79 78 77 75 72 69 69 70 67 66 55 49 43 41 43 41 43 48 54
64 64 58 52 46 44 40 38 34 32 32 33 36 33 31 33 38 47 56 63 64 65 66 65 67 69 69 71 74 73 72 71 68 66 66 65 62 57 45 42 45 49 46 40 45 49 55
62 61 55 48 44 41 37 36 33 30 29 30 30 26 27 28 35 45 54 60 59 59 62 64 63 64 65 66 68 67 67 65 62 59 57 55 53 50 44 45 52 52 50 46 47 50 51
60 58 50 45 43 38 35 33 31 27 26 27 26 25 24 27 34 45 51 53 53 54 56 56 60 59 58 58 60 62 60 59 54 54 54 52 51 47 48 51 57 57 50 49 49 45 51
57 54 47 43 38 35 33 32 29 25 23 22 21 19 24 31 37 37 40 47 50 51 55 54 58 57 55 55 51 50 48 45 43 49 49 48 50 48 52 55 64 62 55 50 52 49 54
54 49 43 41 36 32 31 29 26 23 20 19 17 19 20 26 31 39 45 48 50 49 51 51 51 50 50 49 47 46 46 43 43 46 47 49 51 53 57 58 65 66 57 49 51 53 60
50 46 40 38 34 31 29 28 23 21 18 17 17 21 24 26 30 37 43 44 48 48 48 47 49 49 48 47 47 46 47 41 40 44 49 52 55 58 60 59 64 69 62 55 51 61 62
46 43 38 35 32 30 27 27 22 19 18 16 16 19 22 26 31 34 37 36 40 42 45 43 45 47 44 45 46 44 42 40 43 44 47 51 55 61 65 61 69 67 66 59 54 61 63
43 40 35 32 30 28 27 26 24 19 17 16 17 18 22 29 32 30 32 36 37 39 43 43 44 45 44 46 46 44 42 43 44 47 49 51 56 61 67 64 67 72 74 65 60 63 64
41 37 33 30 29 27 27 25 24 22 17 18 19 21 21 21 24 28 31 34 35 39 41 39 42 45 45 48 45 42 40 42 48 49 51 56 58 61 70 66 64 75 72 70 67 63 68
38 35 31 29 28 26 26 25 24 23 20 20 20 20 19 22 26 28 30 35 36 37 39 40 43 45 49 45 41 40 41 40 45 51 50 55 57 60 69 69 65 69 75 76 68 66 71
36 33 31 29 27 26 26 25 24 23 22 21 20 19 21 24 26 27 32 35 37 40 40 40 44 47 49 43 40 40 43 42 48 53 54 53 58 62 66 72 68 70 68 75 75 73 75
Wind_Direction
293 289 287 280 274 270 268 271 269 271 268 267 265 265 265 265 263 262 262 260 258 256 257 259 259 257 261 259 257 258 261 263 264 264 264 270 267 270 272 275 277 278 276 278 282 286 289
290 289 288 285 282 278 271 272 269 268 271 269 266 261 262 259 259 258 259 257 257 255 253 252 253 257 255 260 258 260 263 263 264 266 264 261 263 267 272 274 276 275 277 278 281 285 286
295 293 289 287 283 279 276 270 267 268 268 271 267 262 261 260 255 256 255 257 254 255 253 254 255 253 253 257 259 257 259 262 265 263 266 265 266 268 269 272 274 275 276 278 281 280 279
294 292 291 286 283 280 276 268 265 265 266 265 263 261 261 261 259 257 257 259 256 251 254 250 253 253 255 256 257 258 260 262 265 265 262 261 263 264 268 268 269 270 271 277 279 277 278
296 295 292 284 282 278 272 267 264 264 263 261 260 260 258 255 255 255 256 255 259 254 252 252 254 258 255 258 258 261 260 261 264 265 267 262 261 263 267 267 268 270 273 272 272 279 281
299 295 290 287 285 280 275 271 264 260 260 259 259 258 259 257 256 254 252 252 255 255 254 251 254 256 255 258 260 260 259 260 263 267 268 264 264 266 268 269 270 269 270 274 279 278 281
298 293 288 286 282 277 274 271 270 267 263 261 253 255 253 255 254 253 252 251 248 249 252 253 254 257 256 256 257 257 259 260 263 266 269 266 266 266 266 269 272 271 275 278 279 277 279
296 292 287 283 281 279 278 276 273 268 266 264 260 256 253 250 248 249 249 250 248 248 246 246 248 252 253 254 257 260 260 263 266 268 268 263 262 263 267 271 273 274 273 275 274 279 284
293 290 289 288 287 285 283 279 275 271 268 265 263 258 255 251 250 247 244 245 246 245 245 245 245 245 248 250 253 256 257 259 264 265 266 260 260 263 264 269 271 272 273 275 276 283 289
293 293 292 290 288 286 283 280 278 274 269 264 260 259 256 252 248 244 245 245 244 245 243 246 245 246 249 251 252 255 257 257 263 262 262 260 258 260 267 268 271 274 277 278 280 287 281
294 295 293 291 290 287 285 281 278 274 270 266 261 256 254 252 250 245 245 245 245 243 242 243 247 247 249 250 252 255 259 261 258 256 258 259 260 263 268 274 274 275 279 281 284 288 265
297 297 295 294 293 290 287 283 279 274 269 265 261 256 253 251 249 246 244 243 241 243 243 242 243 244 246 250 253 255 258 255 253 255 256 257 261 265 270 273 274 276 278 282 284 273 259
300 300 298 298 298 295 289 285 281 275 270 265 260 254 252 249 246 244 243 241 241 241 242 241 241 241 245 248 249 251 252 252 253 254 255 257 261 265 270 272 274 277 280 283 279 266 246
302 303 301 302 300 296 291 285 280 275 271 267 262 256 249 247 244 241 241 240 239 239 237 237 240 241 241 244 246 247 250 252 253 253 254 259 262 266 270 272 274 277 281 280 274 252 228
304 303 302 304 299 296 290 284 280 276 271 267 262 256 249 246 242 240 238 237 236 237 240 238 239 241 243 243 245 246 248 250 251 252 253 257 262 266 270 276 273 271 278 270 259 231 213
304 304 305 303 300 296 291 288 285 279 274 268 261 256 250 245 240 238 236 233 234 237 239 237 236 240 242 243 247 246 247 249 249 251 255 258 262 267 273 275 273 270 261 259 237 217 211
306 305 306 303 301 297 295 292 288 283 275 270 262 256 252 243 238 236 232 231 234 235 237 236 236 236 239 241 242 243 245 248 250 254 257 259 263 269 271 269 268 254 248 239 220 213 209
307 305 306 304 301 297 296 295 291 284 275 270 262 257 252 243 235 231 228 230 233 232 232 233 234 236 235 237 239 241 244 245 248 252 257 261 264 268 268 265 248 227 227 219 215 214 206
307 305 306 304 301 298 298 298 293 285 276 268 261 258 249 240 230 227 228 230 228 229 230 231 233 235 235 236 240 241 243 245 248 250 254 258 262 263 257 242 223 209 213 214 210 207 207
306 305 307 304 301 299 300 299 294 286 276 266 262 254 244 234 226 223 225 228 230 229 231 230 232 234 236 235 237 238 240 244 248 251 253 255 253 249 242 222 208 206 206 208 207 208 208
305 305 306 304 301 299 300 300 294 286 275 266 260 248 233 224 221 221 222 226 229 228 230 230 233 234 236 237 237 241 242 244 246 248 247 244 238 233 226 209 204 199 203 212 206 203 208
303 304 306 302 298 298 300 299 295 289 277 265 258 251 234 222 217 220 227 226 227 225 227 227 232 233 232 235 236 239 240 238 236 238 238 230 226 218 214 206 205 202 203 208 210 209 199
301 303 303 299 296 296 297 296 294 288 277 268 251 231 227 227 220 216 216 220 225 225 226 226 232 234 235 235 235 235 234 227 228 235 228 222 218 209 212 206 210 206 202 206 210 204 201
297 301 300 295 293 295 295 292 291 284 273 263 246 231 217 212 221 222 222 222 223 223 225 225 229 232 233 232 232 232 228 227 231 226 225 220 213 205 211 211 211 209 206 210 211 206 206
295 297 295 291 291 294 293 289 286 281 270 256 245 236 222 217 216 217 223 226 228 226 227 230 229 232 232 232 234 233 229 218 221 218 219 216 213 206 209 214 212 211 207 208 212 211 210
292 294 290 287 288 288 290 287 283 275 263 254 239 231 225 222 218 217 216 220 224 226 228 227 228 231 231 231 231 228 224 217 217 219 215 217 215 209 210 214 215 215 207 208 207 210 212
288 289 286 283 284 286 288 283 278 272 259 248 239 230 222 225 219 218 217 221 220 222 226 225 227 231 230 230 228 227 223 218 220 222 222 217 216 211 212 214 218 220 213 211 209 211 215
283 284 282 278 280 280 285 280 274 269 257 248 241 235 222 211 215 213 213 217 220 221 222 220 222 226 230 229 227 223 224 220 221 223 220 218 217 216 214 214 215 225 217 215 214 214 220
280 279 277 274 276 276 280 274 268 262 254 244 242 234 224 216 214 213 216 219 218 219 220 218 221 223 228 225 222 220 218 214 221 222 219 219 219 217 216 216 218 224 227 218 217 218 223
Height
10612 10607 10603 10600 10598 10595 10594 10593 10591 10592 10593 10594 10596 10598 10601 10603 10607 10610 10613 10617 10621 10625 10628 10633 10636 10641 10645 10648 10650 10659 10657 10660 10662 10664 10665 10667 10669 10670 10675 10673 10672 10682 10678 10683 10683 10675 10674
10587 10580 10576 10572 10569 10567 10564 10562 10560 10561 10562 10565 10567 10571 10574 10577 10581 10584 10588 10594 10599 10605 10610 10615 10620 10624 10629 10626 10634 10642 10643 10643 10644 10647 10651 10653 10652 10654 10662 10661 10659 10661 10667 10669 10672 10668 10658
10557 10550 10544 10539 10535 10532 10530 10529 10527 10527 10530 10532 10536 10541 10546 10550 10555 10557 10563 10568 10575 10582 10588 10595 10602 10606 10613 10596 10618 10621 10628 10627 10629 10631 10635 10637 10637 10640 10646 10645 10646 10646 10651 10657 10659 10656 10648
10526 10517 10510 10503 10498 10496 10494 10495 10493 10495 10496 10500 10504 10509 10517 10520 10525 10529 10537 10543 10549 10558 10564 10571 10577 10586 10591 10582 10598 10602 10609 10605 10614 10617 10619 10621 10623 10626 10629 10629 10630 10631 10637 10646 10645 10635 10631
10491 10482 10475 10469 10464 10462 10462 10461 10461 10462 10462 10466 10470 10476 10483 10490 10493 10502 10511 10516 10522 10533 10539 10549 10553 10564 10563 10563 10574 10579 10583 10586 10593 10599 10603 10602 10607 10610 10611 10613 10617 10618 10622 10627 10629 10618 10613
10461 10450 10444 10440 10434 10432 10432 10432 10432 10434 10435 10438 10441 10445 10451 10454 10458 10472 10482 10489 10497 10505 10518 10522 10531 10540 10543 10542 10552 10553 10560 10567 10575 10581 10584 10585 10591 10593 10594 10595 10600 10599 10606 10612 10617 10605 10594
10434 10426 10421 10415 10409 10407 10406 10405 10404 10405 10407 10410 10415 10418 10425 10427 10430 10443 10451 10458 10471 10481 10495 10497 10511 10514 10520 10524 10531 10531 10541 10549 10556 10559 10563 10568 10575 10573 10573 10577 10582 10583 10588 10595 10595 10584 10582
10410 10403 10395 10388 10383 10379 10376 10375 10375 10375 10377 10380 10386 10391 10397 10401 10407 10418 10423 10432 10444 10456 10471 10474 10484 10493 10499 10504 10513 10508 10523 10530 10534 10539 10545 10550 10553 10552 10557 10561 10563 10566 10570 10573 10573 10568 10560
10387 10378 10370 10363 10358 10353 10349 10346 10344 10345 10346 10348 10354 10361 10368 10371 10381 10392 10401 10409 10418 10430 10445 10443 10461 10471 10471 10490 10488 10489 10503 10507 10514 10519 10525 10530 10532 10537 10541 10542 10544 10550 10552 10552 10552 10554 10550
10362 10355 10347 10339 10334 10329 10323 10318 10315 10315 10318 10321 10326 10329 10335 10340 10351 10365 10375 10384 10396 10406 10420 10424 10438 10444 10451 10464 10471 10472 10481 10492 10495 10500 10505 10510 10514 10521 10524 10524 10526 10534 10531 10533 10534 10540 10534
10342 10335 10326 10318 10311 10305 10297 10292 10290 10289 10289 10293 10298 10303 10307 10314 10325 10334 10349 10360 10373 10382 10397 10403 10413 10425 10432 10440 10451 10455 10463 10474 10477 10481 10487 10490 10496 10503 10507 10510 10509 10513 10514 10514 10518 10520 10517
10322 10315 10304 10296 10288 10281 10274 10269 10265 10264 10265 10267 10271 10277 10280 10291 10293 10309 10323 10335 10349 10359 10379 10387 10394 10401 10411 10421 10430 10437 10445 10451 10459 10465 10469 10474 10480 10484 10488 10492 10493 10496 10495 10495 10499 10504 10509
10302 10293 10283 10275 10267 10259 10252 10247 10244 10241 10241 10244 10248 10253 10256 10266 10269 10289 10300 10311 10325 10346 10349 10363 10374 10386 10392 10400 10410 10415 10423 10432 10441 10448 10452 10456 10465 10470 10473 10475 10476 10478 10476 10480 10484 10492 10501
10282 10274 10264 10257 10247 10239 10232 10227 10224 10222 10222 10224 10227 10231 10236 10238 10255 10267 10278 10292 10311 10315 10317 10337 10359 10370 10375 10383 10392 10398 10403 10415 10424 10433 10437 10438 10445 10453 10456 10460 10463 10462 10462 10466 10471 10480 10487
10265 10257 10247 10240 10230 10223 10215 10210 10208 10206 10206 10206 10209 10211 10212 10224 10238 10248 10260 10280 10286 10289 10295 10328 10346 10350 10354 10363 10371 10384 10388 10400 10409 10415 10422 10424 10426 10433 10440 10445 10448 10446 10449 10453 10461 10467 10477
10250 10242 10232 10224 10215 10208 10200 10196 10193 10191 10191 10191 10193 10193 10199 10212 10222 10233 10249 10264 10259 10274 10286 10312 10323 10328 10336 10343 10361 10370 10379 10382 10391 10398 10403 10407 10411 10417 10423 10430 10431 10431 10434 10442 10449 10459 10469
10235 10226 10217 10210 10200 10193 10187 10182 10180 10179 10178 10178 10180 10176 10192 10198 10208 10222 10238 10240 10246 10260 10276 10291 10301 10305 10320 10331 10341 10353 10361 10367 10376 10382 10386 10392 10398 10401 10411 10416 10416 10419 10423 10433 10441 10451 10460
10221 10212 10204 10196 10188 10180 10175 10171 10169 10168 10166 10167 10166 10169 10179 10188 10199 10210 10218 10221 10231 10249 10260 10269 10279 10288 10305 10312 10324 10335 10343 10352 10362 10369 10372 10374 10380 10384 10395 10400 10404 10408 10414 10421 10432 10442 10452
10208 10198 10192 10183 10176 10170 10165 10161 10159 10158 10157 10156 10155 10164 10171 10178 10187 10196 10200 10204 10216 10231 10243 10256 10263 10274 10288 10300 10308 10320 10329 10337 10347 10354 10358 10362 10369 10370 10379 10385 10390 10397 10404 10412 10422 10431 10442
10194 10187 10180 10171 10165 10161 10156 10152 10151 10149 10148 10148 10150 10156 10161 10168 10175 10181 10186 10192 10207 10221 10231 10241 10250 10259 10270 10283 10292 10304 10313 10321 10332 10340 10345 10348 10352 10356 10365 10371 10378 10387 10394 10402 10411 10422 10433
10183 10176 10169 10160 10154 10153 10148 10144 10143 10142 10141 10142 10144 10147 10153 10158 10164 10166 10174 10186 10197 10213 10221 10232 10239 10249 10260 10270 10282 10289 10301 10309 10319 10323 10328 10331 10335 10343 10350 10359 10368 10378 10387 10396 10403 10411 10421
10172 10165 10158 10152 10148 10144 10141 10137 10135 10136 10135 10136 10138 10142 10146 10149 10153 10161 10172 10179 10187 10199 10208 10221 10226 10237 10248 10255 10270 10277 10286 10297 10305 10305 10311 10317 10322 10332 10338 10349 10358 10367 10377 10387 10396 10404 10416
10161 10155 10149 10144 10140 10137 10134 10132 10130 10130 10129 10130 10132 10134 10140 10145 10150 10153 10158 10167 10176 10188 10198 10211 10219 10230 10240 10248 10258 10266 10272 10281 10288 10293 10299 10305 10312 10322 10329 10339 10347 10359 10369 10379 10388 10399 10409
10149 10144 10140 10136 10132 10129 10127 10125 10125 10125 10124 10124 10126 10128 10132 10136 10142 10147 10152 10161 10168 10180 10192 10204 10211 10218 10227 10237 10244 10253 10261 10271 10278 10281 10286 10293 10301 10311 10318 10329 10339 10349 10360 10369 10376 10386 10397
10138 10134 10131 10127 10124 10122 10120 10119 10120 10120 10119 10119 10121 10124 10128 10131 10135 10141 10148 10159 10166 10178 10184 10194 10203 10209 10219 10227 10234 10244 10253 10261 10264 10271 10277 10283 10291 10302 10309 10319 10329 10340 10350 10359 10368 10378 10388
10127 10124 10122 10119 10116 10115 10114 10112 10113 10116 10115 10115 10116 10119 10123 10124 10129 10139 10146 10150 10158 10168 10175 10185 10193 10199 10208 10214 10221 10231 10240 10250 10257 10261 10268 10274 10281 10292 10299 10310 10318 10320 10336 10347 10357 10369 10377
10116 10114 10112 10110 10108 10107 10107 10106 10107 10109 10111 10111 10112 10113 10118 10125 10129 10134 10141 10145 10152 10157 10165 10176 10184 10189 10196 10202 10211 10221 10231 10240 10245 10251 10258 10264 10271 10282 10287 10299 10307 10309 10328 10335 10347 10361 10366
10104 10103 10101 10100 10100 10100 10099 10099 10100 10102 10105 10106 10107 10111 10116 10119 10121 10128 10133 10137 10144 10150 10156 10165 10171 10177 10180 10191 10202 10213 10221 10229 10237 10239 10247 10253 10263 10271 10279 10289 10299 10299 10313 10326 10341 10348 10351
10093 10092 10091 10091 10091 10091 10092 10092 10093 10095 10098 10100 10104 10107 10111 10113 10116 10122 10125 10130 10134 10140 10147 10155 10159 10166 10169 10182 10192 10201 10209 10220 10223 10227 10236 10246 10250 10259 10269 10281 10289 10293 10301 10317 10327 10334 10334